When you browse on this site, cookies collect data to enhance your experience and personalize the content and advertising you see.
Visit our Privacy Policy to learn more. By continuing to use the site, you agree to this use of cookies and data.
  • în România
  • Lista ţărilor
  • Pe 7 zile
  • Temperatura apei
  • Meteo pe hartă
  • Widget-uri
  • user-avatar
    Intrare

    Meteo pe oră la Melbourne

    Astăzi, 14 Decembrie, Sâmbătă

    Timp Temperatura Precipitaţii Vânt Presiune Umiditate
    00:00 +17°C° 0 mm 4 m/s 759 mmHg 76%
    01:00 +17°C° 0 mm 4 m/s 759 mmHg 77%
    02:00 +15°C° 0 mm 4 m/s 759 mmHg 77%
    03:00 +15°C° 0 mm 4 m/s 759 mmHg 77%
    04:00 +16°C° 0 mm 3 m/s 758 mmHg 74%
    05:00 +16°C° 0 mm 3 m/s 759 mmHg 73%
    06:00 +15°C° 0 mm 4 m/s 759 mmHg 72%
    07:00 +15°C° 0 mm 4 m/s 759 mmHg 71%
    08:00 +18°C° 0 mm 4 m/s 759 mmHg 66%
    09:00 +19°C° 0 mm 3 m/s 759 mmHg 62%
    10:00 +20°C° 0 mm 3 m/s 759 mmHg 57%
    11:00 +20°C° 0 mm 3 m/s 759 mmHg 56%
    12:00 +21°C° 0 mm 4 m/s 759 mmHg 55%
    13:00 +21°C° 0 mm 5 m/s 759 mmHg 54%
    14:00 +21°C° 0 mm 5 m/s 758 mmHg 55%
    15:00 +21°C° 0 mm 5 m/s 758 mmHg 55%
    16:00 +21°C° 0 mm 5 m/s 758 mmHg 56%
    17:00 +21°C° 0 mm 4 m/s 758 mmHg 61%
    18:00 +20°C° 0 mm 4 m/s 758 mmHg 65%
    19:00 +19°C° 0 mm 3 m/s 759 mmHg 70%
    20:00 +18°C° 0 mm 3 m/s 759 mmHg 75%
    21:00 +17°C° 0 mm 2 m/s 759 mmHg 80%
    22:00 +16°C° 0 mm 1 m/s 759 mmHg 85%
    23:00 +16°C° 0 mm 1 m/s 758 mmHg 85%

    Mâine, 15 Decembrie, Duminică

    Timp Temperatura Precipitaţii Vânt Presiune Umiditate
    00:00 +15°C° 0 mm 1 m/s 758 mmHg 86%
    01:00 +15°C° 0 mm 1 m/s 757 mmHg 86%
    02:00 +15°C° 0 mm 1 m/s 757 mmHg 86%
    03:00 +15°C° 0 mm 2 m/s 756 mmHg 86%
    04:00 +15°C° 0 mm 2 m/s 756 mmHg 86%
    05:00 +16°C° 0 mm 2 m/s 756 mmHg 81%
    06:00 +16°C° 0 mm 2 m/s 756 mmHg 75%
    07:00 +17°C° 0 mm 2 m/s 756 mmHg 69%
    08:00 +19°C° 0 mm 2 m/s 756 mmHg 59%
    09:00 +23°C° 0 mm 2 m/s 756 mmHg 49%
    10:00 +25°C° 0 mm 2 m/s 756 mmHg 39%
    11:00 +26°C° 0 mm 2 m/s 755 mmHg 35%
    12:00 +27°C° 0 mm 3 m/s 755 mmHg 31%
    13:00 +28°C° 0 mm 3 m/s 754 mmHg 27%
    14:00 +28°C° 0 mm 4 m/s 754 mmHg 27%
    15:00 +28°C° 0 mm 5 m/s 754 mmHg 26%
    16:00 +28°C° 0 mm 5 m/s 754 mmHg 26%
    17:00 +26°C° 0 mm 5 m/s 754 mmHg 34%
    18:00 +23°C° 0 mm 4 m/s 755 mmHg 43%
    19:00 +21°C° 0 mm 4 m/s 755 mmHg 51%
    20:00 +19°C° 0 mm 3 m/s 756 mmHg 58%
    21:00 +18°C° 0 mm 2 m/s 756 mmHg 66%
    22:00 +16°C° 0 mm 2 m/s 757 mmHg 73%
    23:00 +16°C° 0 mm 2 m/s 757 mmHg 73%

    Poimâine, 16 Decembrie, Luni

    Timp Temperatura Precipitaţii Vânt Presiune Umiditate
    00:00 +15°C° 0 mm 1 m/s 757 mmHg 73%
    01:00 +15°C° 0 mm 1 m/s 757 mmHg 74%
    02:00 +15°C° 0 mm 1 m/s 757 mmHg 76%
    03:00 +14°C° 0 mm 1 m/s 757 mmHg 78%
    04:00 +14°C° 0 mm 1 m/s 757 mmHg 80%
    05:00 +15°C° 0 mm 1 m/s 757 mmHg 77%
    06:00 +16°C° 0 mm 1 m/s 758 mmHg 74%
    07:00 +18°C° 0 mm 1 m/s 758 mmHg 71%
    08:00 +20°C° 0 mm 1 m/s 758 mmHg 64%
    09:00 +21°C° 0 mm 2 m/s 759 mmHg 57%
    10:00 +23°C° 0 mm 2 m/s 759 mmHg 50%
    11:00 +24°C° 0 mm 2 m/s 759 mmHg 47%
    12:00 +26°C° 0 mm 3 m/s 759 mmHg 44%
    13:00 +27°C° 0 mm 3 m/s 759 mmHg 41%
    14:00 +27°C° 0 mm 4 m/s 759 mmHg 41%
    15:00 +27°C° 0 mm 4 m/s 759 mmHg 41%
    16:00 +27°C° 0 mm 5 m/s 759 mmHg 42%
    17:00 +25°C° 0 mm 4 m/s 759 mmHg 46%
    18:00 +23°C° 0 mm 4 m/s 760 mmHg 51%
    19:00 +22°C° 0 mm 3 m/s 761 mmHg 56%
    20:00 +20°C° 0 mm 3 m/s 761 mmHg 61%
    21:00 +19°C° 0 mm 2 m/s 761 mmHg 67%
    22:00 +18°C° 0 mm 1 m/s 762 mmHg 72%
    23:00 +18°C° 0 mm 1 m/s 762 mmHg 74%

    17 Decembrie, Marţi

    Timp Temperatura Precipitaţii Vânt Presiune Umiditate
    00:00 +16°C° 0 mm 1 m/s 761 mmHg 76%
    01:00 +16°C° 0 mm 1 m/s 761 mmHg 78%
    02:00 +15°C° 0 mm 1 m/s 761 mmHg 80%
    03:00 +15°C° 0 mm 1 m/s 761 mmHg 81%
    04:00 +15°C° 0 mm 1 m/s 761 mmHg 82%
    05:00 +15°C° 0 mm 0 m/s 762 mmHg 76%
    06:00 +16°C° 0 mm 0 m/s 762 mmHg 71%
    07:00 +18°C° 0 mm 0 m/s 762 mmHg 65%
    08:00 +22°C° 0 mm 1 m/s 762 mmHg 56%
    09:00 +25°C° 0 mm 1 m/s 762 mmHg 46%
    10:00 +28°C° 0 mm 2 m/s 762 mmHg 37%
    11:00 +30°C° 0 mm 2 m/s 761 mmHg 33%
    12:00 +31°C° 0 mm 2 m/s 761 mmHg 30%
    13:00 +34°C° 0 mm 2 m/s 760 mmHg 26%
    14:00 +34°C° 0 mm 2 m/s 760 mmHg 27%
    15:00 +35°C° 0 mm 3 m/s 759 mmHg 27%
    16:00 +35°C° 0 mm 3 m/s 759 mmHg 27%
    17:00 +33°C° 0 mm 3 m/s 759 mmHg 34%
    18:00 +30°C° 0 mm 4 m/s 759 mmHg 41%
    19:00 +28°C° 0 mm 4 m/s 760 mmHg 48%
    20:00 +27°C° 0 mm 3 m/s 760 mmHg 54%
    21:00 +25°C° 0 mm 2 m/s 760 mmHg 59%
    22:00 +23°C° 0 mm 2 m/s 760 mmHg 65%
    23:00 +23°C° 0 mm 1 m/s 760 mmHg 66%

    18 Decembrie, Miercuri

    Timp Temperatura Precipitaţii Vânt Presiune Umiditate
    00:00 +22°C° 0 mm 1 m/s 759 mmHg 68%
    01:00 +22°C° 0 mm 1 m/s 759 mmHg 69%
    02:00 +22°C° 0 mm 1 m/s 758 mmHg 66%
    03:00 +20°C° 0 mm 0 m/s 758 mmHg 64%
    04:00 +20°C° 0 mm 0 m/s 758 mmHg 61%
    05:00 +24°C° 0 mm 1 m/s 758 mmHg 54%
    06:00 +26°C° 0 mm 2 m/s 758 mmHg 46%
    07:00 +27°C° 0 mm 3 m/s 758 mmHg 39%
    08:00 +32°C° 0 mm 4 m/s 758 mmHg 33%
    09:00 +35°C° 0 mm 5 m/s 758 mmHg 26%
    10:00 +39°C° 0 mm 6 m/s 758 mmHg 19%
    11:00 +40°C° 0 mm 5 m/s 757 mmHg 17%
    12:00 +42°C° 0 mm 5 m/s 757 mmHg 14%
    13:00 +44°C° 0 mm 4 m/s 756 mmHg 12%
    14:00 +42°C° 0 mm 5 m/s 756 mmHg 16%
    15:00 +39°C° 0 mm 5 m/s 755 mmHg 20%
    16:00 +36°C° 0 mm 5 m/s 755 mmHg 23%
    17:00 +34°C° 0 mm 4 m/s 755 mmHg 27%
    18:00 +33°C° 0 mm 3 m/s 755 mmHg 31%
    19:00 +30°C° 0 mm 2 m/s 756 mmHg 34%
    20:00 +29°C° 0 mm 2 m/s 756 mmHg 36%
    21:00 +27°C° 0 mm 1 m/s 756 mmHg 38%
    22:00 +26°C° 0 mm 1 m/s 756 mmHg 40%
    23:00 +25°C° 0 mm 2 m/s 756 mmHg 42%

    19 Decembrie, Joi

    Timp Temperatura Precipitaţii Vânt Presiune Umiditate
    00:00 +24°C° 0 mm 2 m/s 756 mmHg 45%
    01:00 +24°C° 0 mm 2 m/s 756 mmHg 48%
    02:00 +23°C° 0 mm 2 m/s 757 mmHg 53%
    03:00 +21°C° 0 mm 2 m/s 757 mmHg 59%
    04:00 +20°C° 0 mm 3 m/s 757 mmHg 64%
    05:00 +20°C° 0 mm 3 m/s 758 mmHg 63%
    06:00 +20°C° 0 mm 3 m/s 759 mmHg 63%
    07:00 +20°C° 0 mm 4 m/s 760 mmHg 62%
    08:00 +21°C° 0 mm 4 m/s 760 mmHg 60%
    09:00 +22°C° 0 mm 5 m/s 761 mmHg 58%
    10:00 +23°C° 0 mm 5 m/s 761 mmHg 56%
    11:00 +25°C° 0 mm 5 m/s 761 mmHg 50%
    12:00 +26°C° 0 mm 5 m/s 761 mmHg 44%
    13:00 +27°C° 0 mm 5 m/s 761 mmHg 38%
    14:00 +26°C° 0 mm 5 m/s 761 mmHg 38%
    15:00 +26°C° 0 mm 5 m/s 761 mmHg 39%
    16:00 +25°C° 0 mm 5 m/s 761 mmHg 40%
    17:00 +23°C° 0 mm 5 m/s 762 mmHg 44%
    18:00 +22°C° 0 mm 4 m/s 762 mmHg 48%
    19:00 +20°C° 0 mm 4 m/s 762 mmHg 52%
    20:00 +19°C° 0 mm 4 m/s 763 mmHg 56%
    21:00 +17°C° 0 mm 3 m/s 763 mmHg 61%
    22:00 +16°C° 0 mm 2 m/s 764 mmHg 66%
    23:00 +15°C° 0 mm 2 m/s 763 mmHg 68%
    Arată mai mult